PGT193B LOWW-LTFJ

Flight info

Callsign PGT193B
Flight time 1h 52m
Altitude 37000
Route ARSIN DCT NALOX DCT BABIT DCT KOTUS DCT IRGOR DCT ETIDA DCT BUFRA DCT ADORU UM19 IBODU
Aircraft A21N/M-SDE3FGHIRWY/LB1

Departure

Time 2026-04-22 14:25
Airport Vienna International Airport (LOWW)

Arrival

Time 2026-04-22 16:18
Airport Istanbul Sabiha Gökçen International Airport (LTFJ)
Time Latitude Longitude Altitude Speed Heading
2026-04-22 14:01 48.11785 16.56189 595 ft 0 kts 345°
2026-04-22 14:14 48.11784 16.56190 595 ft 1 kts 345°
2026-04-22 14:14 48.11770 16.56196 595 ft 2 kts 345°
2026-04-22 14:14 48.11755 16.56202 595 ft 2 kts 345°
2026-04-22 14:15 48.11740 16.56208 595 ft 1 kts 345°
2026-04-22 14:15 48.11731 16.56212 596 ft 2 kts 333°
2026-04-22 14:15 48.11720 16.56227 596 ft 2 kts 304°
2026-04-22 14:15 48.11713 16.56248 596 ft 2 kts 277°
2026-04-22 14:16 48.11715 16.56270 596 ft 2 kts 251°
2026-04-22 14:16 48.11722 16.56290 596 ft 2 kts 225°
2026-04-22 14:16 48.11729 16.56298 596 ft 1 kts 209°
2026-04-22 14:16 48.11735 16.56303 596 ft 0 kts 208°
2026-04-22 14:18 48.11726 16.56295 596 ft 3 kts 208°
2026-04-22 14:19 48.11705 16.56278 596 ft 2 kts 209°
2026-04-22 14:19 48.11676 16.56255 596 ft 6 kts 208°
2026-04-22 14:19 48.11632 16.56209 596 ft 9 kts 218°
2026-04-22 14:19 48.11568 16.56192 596 ft 10 kts 148°
2026-04-22 14:20 48.11501 16.56377 598 ft 9 kts 118°
2026-04-22 14:20 48.11471 16.56467 599 ft 9 kts 115°
2026-04-22 14:20 48.11443 16.56559 601 ft 9 kts 116°
2026-04-22 14:21 48.11385 16.56736 603 ft 9 kts 116°
2026-04-22 14:21 48.11355 16.56827 603 ft 10 kts 116°
2026-04-22 14:22 48.11288 16.57030 605 ft 12 kts 116°
2026-04-22 14:22 48.11253 16.57140 606 ft 11 kts 116°
2026-04-22 14:22 48.11180 16.57364 607 ft 11 kts 116°
2026-04-22 14:23 48.11145 16.57473 608 ft 11 kts 116°
2026-04-22 14:23 48.11107 16.57588 608 ft 12 kts 116°
2026-04-22 14:23 48.11051 16.57645 608 ft 10 kts 182°
2026-04-22 14:23 48.10986 16.57604 609 ft 10 kts 207°
2026-04-22 14:24 48.10923 16.57557 610 ft 6 kts 208°
2026-04-22 14:24 48.10921 16.57520 610 ft 4 kts 289°
2026-04-22 14:24 48.10928 16.57496 610 ft 0 kts 295°
2026-04-22 14:24 48.10961 16.57393 610 ft 39 kts 297°
2026-04-22 14:25 48.11200 16.56659 604 ft 120 kts 296°
2026-04-22 14:25 48.11669 16.55200 673 ft 179 kts 297°
2026-04-22 14:25 48.12133 16.53578 1694 ft 171 kts 294°
2026-04-22 14:25 48.12273 16.51789 2476 ft 189 kts 263°
2026-04-22 14:26 48.11527 16.50067 3046 ft 216 kts 221°
2026-04-22 14:26 48.10179 16.48943 3651 ft 233 kts 208°
2026-04-22 14:26 48.08662 16.47852 4227 ft 251 kts 208°
2026-04-22 14:26 48.06966 16.46887 4793 ft 273 kts 188°
2026-04-22 14:27 48.05040 16.47076 5505 ft 286 kts 169°
2026-04-22 14:27 48.03093 16.47699 6400 ft 292 kts 167°
2026-04-22 14:27 48.01099 16.48340 7349 ft 295 kts 168°
2026-04-22 14:27 47.99070 16.48830 8293 ft 298 kts 172°
2026-04-22 14:28 47.96982 16.48859 9160 ft 302 kts 190°
2026-04-22 14:28 47.95015 16.47874 10023 ft 304 kts 207°
2026-04-22 14:28 47.93134 16.46402 10752 ft 312 kts 210°
2026-04-22 14:28 47.91157 16.44771 11218 ft 330 kts 210°
2026-04-22 14:29 47.89044 16.43240 11609 ft 349 kts 199°
2026-04-22 14:29 47.86603 16.42803 12165 ft 359 kts 174°
2026-04-22 14:29 47.84188 16.43583 12999 ft 359 kts 163°
2026-04-22 14:29 47.81778 16.44573 13824 ft 361 kts 162°
2026-04-22 14:30 47.79354 16.45573 14590 ft 365 kts 162°
2026-04-22 14:30 47.76886 16.46578 15335 ft 369 kts 163°
2026-04-22 14:30 47.74399 16.47582 16067 ft 373 kts 163°
2026-04-22 14:30 47.71878 16.48593 16789 ft 376 kts 163°
2026-04-22 14:31 47.69373 16.49593 17481 ft 380 kts 162°
2026-04-22 14:31 47.66803 16.50619 18153 ft 384 kts 162°
2026-04-22 14:31 47.64209 16.51654 18817 ft 387 kts 162°
2026-04-22 14:31 47.61612 16.52688 19462 ft 391 kts 162°
2026-04-22 14:32 47.58950 16.53747 20096 ft 395 kts 162°
2026-04-22 14:32 47.56277 16.54808 20736 ft 399 kts 162°
2026-04-22 14:32 47.53606 16.55868 21348 ft 402 kts 162°
2026-04-22 14:32 47.50893 16.56943 21960 ft 405 kts 163°
2026-04-22 14:33 47.48155 16.58026 22556 ft 408 kts 163°
2026-04-22 14:33 47.45383 16.59122 23133 ft 412 kts 163°
2026-04-22 14:33 47.42585 16.60226 23698 ft 415 kts 163°
2026-04-22 14:33 47.39803 16.61322 24232 ft 418 kts 163°
2026-04-22 14:34 47.37000 16.62426 24741 ft 421 kts 163°
2026-04-22 14:34 47.34161 16.63542 25225 ft 424 kts 163°
2026-04-22 14:34 47.31300 16.64666 25696 ft 428 kts 163°
2026-04-22 14:34 47.28389 16.65809 26150 ft 431 kts 163°
2026-04-22 14:35 47.25486 16.66948 26576 ft 434 kts 163°
2026-04-22 14:35 47.22574 16.68088 27001 ft 436 kts 163°
2026-04-22 14:35 47.19628 16.69240 27417 ft 439 kts 163°
2026-04-22 14:35 47.16658 16.70400 27821 ft 441 kts 163°
2026-04-22 14:36 47.13687 16.71557 28204 ft 443 kts 163°
2026-04-22 14:36 47.10681 16.72728 28574 ft 446 kts 163°
2026-04-22 14:36 47.07666 16.73901 28931 ft 448 kts 163°
2026-04-22 14:36 47.04646 16.75073 29273 ft 451 kts 164°
2026-04-22 14:37 47.01627 16.76245 29606 ft 453 kts 164°
2026-04-22 14:37 46.98541 16.77443 29932 ft 456 kts 164°
2026-04-22 14:37 46.95463 16.78635 30232 ft 458 kts 164°
2026-04-22 14:37 46.92428 16.80056 30531 ft 459 kts 156°
2026-04-22 14:38 46.89619 16.82099 30899 ft 456 kts 147°
2026-04-22 14:38 46.87027 16.84754 31299 ft 452 kts 139°
2026-04-22 14:38 46.84753 16.87903 31556 ft 449 kts 130°
2026-04-22 14:38 46.82831 16.91474 31761 ft 446 kts 121°
2026-04-22 14:39 46.81155 16.95301 31952 ft 446 kts 119°
2026-04-22 14:39 46.79534 16.99132 32158 ft 447 kts 119°
2026-04-22 14:39 46.77885 17.03032 32354 ft 448 kts 119°
2026-04-22 14:40 46.75161 17.09417 32679 ft 449 kts 119°
2026-04-22 14:40 46.72946 17.14564 32936 ft 450 kts 120°
2026-04-22 14:40 46.71284 17.18411 33122 ft 450 kts 120°
2026-04-22 14:40 46.69606 17.22282 33297 ft 451 kts 120°
2026-04-22 14:41 46.67927 17.26148 33478 ft 452 kts 120°
2026-04-22 14:41 46.66243 17.30017 33653 ft 452 kts 120°
2026-04-22 14:41 46.64565 17.33869 33832 ft 453 kts 120°
2026-04-22 14:41 46.62868 17.37757 34036 ft 453 kts 120°
2026-04-22 14:42 46.61162 17.41662 34266 ft 454 kts 120°
2026-04-22 14:42 46.59465 17.45540 34494 ft 454 kts 120°
2026-04-22 14:42 46.57791 17.49360 34718 ft 454 kts 120°
2026-04-22 14:42 46.56100 17.53213 34943 ft 454 kts 120°
2026-04-22 14:43 46.54388 17.57107 35155 ft 454 kts 120°
2026-04-22 14:43 46.52690 17.60963 35346 ft 454 kts 120°
2026-04-22 14:43 46.50996 17.64806 35522 ft 455 kts 120°
2026-04-22 14:43 46.49304 17.68640 35678 ft 456 kts 121°
2026-04-22 14:44 46.47585 17.72529 35820 ft 457 kts 121°
2026-04-22 14:44 46.45861 17.76424 35958 ft 459 kts 121°
2026-04-22 14:44 46.44137 17.80315 36089 ft 460 kts 121°
2026-04-22 14:44 46.42404 17.84219 36231 ft 461 kts 121°
2026-04-22 14:45 46.40651 17.88164 36361 ft 462 kts 121°
2026-04-22 14:45 46.38909 17.92075 36496 ft 463 kts 121°
2026-04-22 14:45 46.37158 17.96003 36627 ft 464 kts 121°
2026-04-22 14:45 46.35415 17.99911 36755 ft 465 kts 121°
2026-04-22 14:46 46.33656 18.03843 36873 ft 466 kts 121°
2026-04-22 14:46 46.31896 18.07776 36984 ft 467 kts 121°
2026-04-22 14:46 46.30127 18.11720 37087 ft 468 kts 121°
2026-04-22 14:46 46.28366 18.15643 37122 ft 470 kts 121°
2026-04-22 14:47 46.24789 18.23596 37133 ft 471 kts 121°
2026-04-22 14:47 46.21220 18.31506 37131 ft 471 kts 121°
2026-04-22 14:48 46.17889 18.38867 37134 ft 471 kts 121°
2026-04-22 14:48 46.14306 18.46765 37133 ft 471 kts 121°
2026-04-22 14:49 46.10740 18.54604 37129 ft 471 kts 121°
2026-04-22 14:49 46.07145 18.62484 37130 ft 472 kts 121°
2026-04-22 14:50 46.03532 18.70382 37124 ft 472 kts 122°
2026-04-22 14:50 45.99916 18.78262 37124 ft 472 kts 122°
2026-04-22 14:51 45.96314 18.86087 37125 ft 472 kts 122°
2026-04-22 14:51 45.92557 18.93810 37121 ft 473 kts 127°
2026-04-22 14:52 45.88303 19.01071 37122 ft 474 kts 129°
2026-04-22 14:52 45.83999 19.08221 37118 ft 474 kts 129°
2026-04-22 14:53 45.79693 19.15370 37118 ft 474 kts 129°
2026-04-22 14:53 45.75436 19.22426 37127 ft 475 kts 129°
2026-04-22 14:54 45.71134 19.29541 37127 ft 475 kts 130°
2026-04-22 14:54 45.66811 19.36671 37127 ft 476 kts 130°
2026-04-22 14:55 45.62465 19.43821 37124 ft 476 kts 130°
2026-04-22 14:55 45.58128 19.50938 37125 ft 476 kts 130°
2026-04-22 14:56 45.53791 19.58039 37116 ft 476 kts 130°
2026-04-22 14:56 45.49446 19.65134 37118 ft 476 kts 130°
2026-04-22 14:57 45.45094 19.72222 37112 ft 477 kts 131°
2026-04-22 14:57 45.40711 19.79339 37106 ft 477 kts 131°
2026-04-22 14:58 45.36332 19.86432 37104 ft 478 kts 131°
2026-04-22 14:58 45.31928 19.93505 37105 ft 479 kts 133°
2026-04-22 14:59 45.27252 20.00286 37103 ft 479 kts 135°
2026-04-22 14:59 45.22574 20.06953 37106 ft 479 kts 135°
2026-04-22 15:00 45.17884 20.13623 37105 ft 479 kts 135°
2026-04-22 15:00 45.13202 20.20266 37108 ft 479 kts 135°
2026-04-22 15:01 45.08507 20.26915 37106 ft 479 kts 135°
2026-04-22 15:01 45.03763 20.33617 37110 ft 479 kts 135°
2026-04-22 15:02 44.99235 20.39999 37107 ft 479 kts 135°
2026-04-22 15:02 44.94436 20.46750 37110 ft 479 kts 135°
2026-04-22 15:03 44.89701 20.53388 37111 ft 480 kts 135°
2026-04-22 15:03 44.84960 20.60020 37110 ft 480 kts 135°
2026-04-22 15:04 44.80221 20.66630 37109 ft 481 kts 136°
2026-04-22 15:04 44.75457 20.73258 37099 ft 481 kts 136°
2026-04-22 15:05 44.70841 20.80001 37095 ft 482 kts 132°
2026-04-22 15:05 44.66459 20.87125 37087 ft 482 kts 131°
2026-04-22 15:06 44.62081 20.94242 37085 ft 482 kts 131°
2026-04-22 15:06 44.58522 21.00007 37083 ft 482 kts 131°
2026-04-22 15:07 44.54606 21.06336 37082 ft 482 kts 131°
2026-04-22 15:07 44.50221 21.13401 37077 ft 482 kts 131°
2026-04-22 15:08 44.45813 21.20484 37074 ft 482 kts 131°
2026-04-22 15:08 44.41421 21.27524 37071 ft 483 kts 131°
2026-04-22 15:09 44.37009 21.34579 37072 ft 484 kts 132°
2026-04-22 15:09 44.32573 21.41656 37065 ft 484 kts 132°
2026-04-22 15:10 44.28126 21.48730 37060 ft 484 kts 132°
2026-04-22 15:10 44.23689 21.55772 37056 ft 484 kts 132°
2026-04-22 15:11 44.19249 21.62801 37051 ft 485 kts 132°
2026-04-22 15:11 44.14782 21.69854 37043 ft 486 kts 133°
2026-04-22 15:12 44.10316 21.76887 37032 ft 485 kts 133°
2026-04-22 15:12 44.05835 21.83929 37027 ft 485 kts 133°
2026-04-22 15:13 44.01384 21.90907 37026 ft 485 kts 133°
2026-04-22 15:13 43.96902 21.97914 37035 ft 486 kts 133°
2026-04-22 15:14 43.92409 22.04922 37032 ft 487 kts 133°
2026-04-22 15:14 43.87906 22.11928 37039 ft 487 kts 133°
2026-04-22 15:15 43.83377 22.18955 37035 ft 488 kts 133°
2026-04-22 15:15 43.78859 22.25948 37032 ft 488 kts 133°
2026-04-22 15:16 43.74345 22.32916 37035 ft 488 kts 134°
2026-04-22 15:16 43.69833 22.39931 37030 ft 489 kts 131°
2026-04-22 15:17 43.65764 22.47431 37029 ft 491 kts 126°
2026-04-22 15:17 43.61923 22.55220 37027 ft 490 kts 125°
2026-04-22 15:18 43.58062 22.63037 37017 ft 491 kts 125°
2026-04-22 15:18 43.54186 22.70840 37025 ft 492 kts 126°
2026-04-22 15:19 43.50297 22.78637 37023 ft 493 kts 126°
2026-04-22 15:19 43.46437 22.86353 37021 ft 493 kts 126°
2026-04-22 15:20 43.42547 22.94109 37019 ft 493 kts 126°
2026-04-22 15:20 43.38665 23.01831 37017 ft 493 kts 127°
2026-04-22 15:21 43.34766 23.09562 37010 ft 494 kts 127°
2026-04-22 15:21 43.30857 23.17296 37020 ft 494 kts 127°
2026-04-22 15:22 43.26931 23.25038 37018 ft 495 kts 127°
2026-04-22 15:22 43.23008 23.32757 37021 ft 495 kts 127°
2026-04-22 15:23 43.19069 23.40491 37021 ft 496 kts 127°
2026-04-22 15:23 43.15112 23.48235 37017 ft 495 kts 127°
2026-04-22 15:24 43.11180 23.55912 37016 ft 496 kts 127°
2026-04-22 15:24 43.07205 23.63650 37015 ft 497 kts 127°
2026-04-22 15:25 43.03238 23.71360 37014 ft 497 kts 127°
2026-04-22 15:25 42.99446 23.78706 37027 ft 497 kts 128°
2026-04-22 15:26 42.95576 23.86185 37023 ft 497 kts 128°
2026-04-22 15:26 42.91575 23.93897 37022 ft 497 kts 128°
2026-04-22 15:27 42.87827 24.01099 37013 ft 498 kts 128°
2026-04-22 15:27 42.83796 24.08828 36993 ft 498 kts 127°
2026-04-22 15:28 42.79803 24.16468 36991 ft 499 kts 127°
2026-04-22 15:28 42.75768 24.24172 36984 ft 498 kts 128°
2026-04-22 15:29 42.72321 24.30734 36984 ft 498 kts 128°
2026-04-22 15:30 42.67609 24.39675 36996 ft 499 kts 128°
2026-04-22 15:30 42.62889 24.48609 36999 ft 498 kts 128°
2026-04-22 15:31 42.58854 24.56223 37013 ft 499 kts 128°
2026-04-22 15:31 42.54783 24.63884 37019 ft 499 kts 128°
2026-04-22 15:32 42.51008 24.71799 37019 ft 501 kts 121°
2026-04-22 15:32 42.47953 24.80226 37034 ft 503 kts 116°
2026-04-22 15:33 42.45104 24.88854 37017 ft 503 kts 116°
2026-04-22 15:33 42.42222 24.97519 37025 ft 503 kts 116°
2026-04-22 15:34 42.39343 25.06104 37015 ft 503 kts 116°
2026-04-22 15:34 42.36451 25.14682 37012 ft 503 kts 116°
2026-04-22 15:35 42.34045 25.21801 37015 ft 503 kts 116°
2026-04-22 15:35 42.30645 25.31825 37017 ft 503 kts 116°
2026-04-22 15:36 42.27729 25.40395 37019 ft 503 kts 116°
2026-04-22 15:36 42.24807 25.48947 37028 ft 503 kts 116°
2026-04-22 15:37 42.21885 25.57480 37036 ft 503 kts 116°
2026-04-22 15:37 42.18948 25.66028 37035 ft 503 kts 116°
2026-04-22 15:38 42.16016 25.74537 37029 ft 503 kts 117°
2026-04-22 15:38 42.11578 25.87364 37036 ft 502 kts 117°
2026-04-22 15:39 42.08631 25.95850 37033 ft 502 kts 116°
2026-04-22 15:39 42.05660 26.04377 37035 ft 501 kts 117°
2026-04-22 15:40 42.02713 26.12814 37032 ft 501 kts 117°
2026-04-22 15:40 41.99741 26.21289 37033 ft 501 kts 117°
2026-04-22 15:41 41.96769 26.29743 37027 ft 501 kts 117°
2026-04-22 15:41 41.93794 26.38173 37024 ft 502 kts 117°
2026-04-22 15:42 41.90803 26.46626 37048 ft 502 kts 117°
2026-04-22 15:42 41.87600 26.54913 37057 ft 501 kts 123°
2026-04-22 15:43 41.83674 26.62591 37035 ft 497 kts 131°
2026-04-22 15:43 41.79297 26.69673 37051 ft 494 kts 134°
2026-04-22 15:44 41.74881 26.76737 36972 ft 495 kts 134°
2026-04-22 15:44 41.72700 26.80240 36775 ft 493 kts 134°
2026-04-22 15:44 41.70512 26.83762 36576 ft 491 kts 134°
2026-04-22 15:45 41.68339 26.87259 36386 ft 489 kts 135°
2026-04-22 15:45 41.66171 26.90739 36165 ft 488 kts 135°
2026-04-22 15:45 41.63993 26.94237 35799 ft 486 kts 135°
2026-04-22 15:45 41.61836 26.97696 35328 ft 487 kts 135°
2026-04-22 15:46 41.59656 27.01182 34755 ft 491 kts 136°
2026-04-22 15:46 41.57464 27.04678 34109 ft 496 kts 136°
2026-04-22 15:46 41.55210 27.08180 33435 ft 499 kts 139°
2026-04-22 15:46 41.52834 27.11522 32651 ft 502 kts 141°
2026-04-22 15:47 41.50396 27.14861 31917 ft 503 kts 141°
2026-04-22 15:47 41.47945 27.18192 31199 ft 505 kts 141°
2026-04-22 15:47 41.45507 27.21503 30451 ft 506 kts 141°
2026-04-22 15:47 41.43068 27.24819 29747 ft 504 kts 141°
2026-04-22 15:48 41.40624 27.28146 29256 ft 498 kts 141°
2026-04-22 15:48 41.38227 27.31415 28731 ft 493 kts 141°
2026-04-22 15:48 41.35836 27.34658 28184 ft 489 kts 141°
2026-04-22 15:48 41.33474 27.37868 27682 ft 483 kts 141°
2026-04-22 15:49 41.31126 27.41050 27181 ft 478 kts 140°
2026-04-22 15:49 41.28829 27.44158 26682 ft 474 kts 140°
2026-04-22 15:49 41.26530 27.47268 26189 ft 469 kts 140°
2026-04-22 15:49 41.24372 27.50482 25773 ft 468 kts 132°
2026-04-22 15:50 41.22648 27.54134 25359 ft 467 kts 120°
2026-04-22 15:50 41.21370 27.58101 24887 ft 465 kts 114°
2026-04-22 15:50 41.20255 27.62091 24410 ft 461 kts 112°
2026-04-22 15:50 41.19176 27.66035 23928 ft 456 kts 113°
2026-04-22 15:51 41.18070 27.70004 23447 ft 451 kts 114°
2026-04-22 15:51 41.16973 27.73856 22981 ft 446 kts 114°
2026-04-22 15:51 41.15870 27.77664 22527 ft 442 kts 115°
2026-04-22 15:51 41.14772 27.81434 22058 ft 437 kts 115°
2026-04-22 15:52 41.13680 27.85166 21605 ft 433 kts 115°
2026-04-22 15:52 41.12602 27.88855 21151 ft 429 kts 115°
2026-04-22 15:52 41.11533 27.92510 20699 ft 425 kts 114°
2026-04-22 15:52 41.10479 27.96111 20269 ft 421 kts 115°
2026-04-22 15:53 41.09416 27.99742 19807 ft 418 kts 115°
2026-04-22 15:53 41.08370 28.03301 19367 ft 414 kts 115°
2026-04-22 15:53 41.07332 28.06824 18936 ft 410 kts 115°
2026-04-22 15:53 41.06316 28.10274 18712 ft 399 kts 115°
2026-04-22 15:54 41.05328 28.13631 18606 ft 386 kts 115°
2026-04-22 15:54 41.04204 28.16799 18443 ft 367 kts 130°
2026-04-22 15:54 41.02436 28.19010 18156 ft 342 kts 158°
2026-04-22 15:54 41.00278 28.19967 17763 ft 321 kts 179°
2026-04-22 15:55 40.98077 28.20288 17395 ft 316 kts 182°
2026-04-22 15:55 40.95899 28.20583 17018 ft 315 kts 181°
2026-04-22 15:55 40.93712 28.20973 16637 ft 315 kts 179°
2026-04-22 15:55 40.91573 28.21434 16264 ft 315 kts 177°
2026-04-22 15:56 40.89413 28.21952 15880 ft 313 kts 176°
2026-04-22 15:56 40.87294 28.22487 15516 ft 312 kts 176°
2026-04-22 15:56 40.85154 28.23038 15140 ft 311 kts 175°
2026-04-22 15:56 40.83029 28.23591 14762 ft 309 kts 175°
2026-04-22 15:57 40.80924 28.24139 14389 ft 307 kts 175°
2026-04-22 15:57 40.78856 28.24765 14022 ft 308 kts 169°
2026-04-22 15:57 40.76829 28.25763 13662 ft 311 kts 160°
2026-04-22 15:57 40.74886 28.27030 13308 ft 312 kts 158°
2026-04-22 15:58 40.72955 28.28361 12954 ft 313 kts 156°
2026-04-22 15:58 40.71054 28.29675 12598 ft 312 kts 156°
2026-04-22 15:58 40.69174 28.31094 12210 ft 315 kts 145°
2026-04-22 15:58 40.67833 28.33355 11878 ft 318 kts 110°
2026-04-22 15:59 40.67484 28.36254 11900 ft 321 kts 89°
2026-04-22 15:59 40.67521 28.39202 11676 ft 322 kts 86°
2026-04-22 15:59 40.67574 28.42101 11315 ft 321 kts 87°
2026-04-22 15:59 40.67577 28.45024 10964 ft 319 kts 88°
2026-04-22 16:00 40.67539 28.47940 10600 ft 317 kts 89°
2026-04-22 16:00 40.67503 28.49854 10360 ft 315 kts 89°
2026-04-22 16:00 40.67417 28.53649 9907 ft 310 kts 89°
2026-04-22 16:00 40.67351 28.56491 9539 ft 307 kts 89°
2026-04-22 16:01 40.67286 28.59280 9213 ft 302 kts 89°
2026-04-22 16:01 40.67215 28.61991 9070 ft 292 kts 92°
2026-04-22 16:01 40.66664 28.64472 9018 ft 279 kts 123°
2026-04-22 16:01 40.65286 28.66112 9032 ft 268 kts 152°
2026-04-22 16:02 40.63617 28.67144 9013 ft 264 kts 159°
2026-04-22 16:02 40.61912 28.68100 9008 ft 263 kts 159°
2026-04-22 16:02 40.60250 28.69117 9028 ft 264 kts 154°
2026-04-22 16:02 40.58727 28.70450 9038 ft 265 kts 141°
2026-04-22 16:03 40.57357 28.72104 9024 ft 266 kts 136°
2026-04-22 16:03 40.56050 28.73823 9024 ft 266 kts 135°
2026-04-22 16:03 40.54747 28.75556 9018 ft 267 kts 135°
2026-04-22 16:03 40.53464 28.77314 9021 ft 268 kts 130°
2026-04-22 16:04 40.52382 28.79295 9021 ft 268 kts 120°
2026-04-22 16:04 40.51471 28.81444 9027 ft 267 kts 117°
2026-04-22 16:04 40.50609 28.83603 9022 ft 267 kts 117°
2026-04-22 16:04 40.49746 28.85764 9027 ft 267 kts 117°
2026-04-22 16:05 40.49182 28.87227 9024 ft 267 kts 113°
2026-04-22 16:05 40.48426 28.90288 9006 ft 266 kts 101°
2026-04-22 16:05 40.48054 28.92674 9015 ft 266 kts 99°
2026-04-22 16:05 40.47713 28.95056 9005 ft 266 kts 99°
2026-04-22 16:06 40.47366 28.97433 9011 ft 266 kts 99°
2026-04-22 16:06 40.47148 28.99853 9013 ft 264 kts 89°
2026-04-22 16:06 40.47220 29.02238 9014 ft 262 kts 82°
2026-04-22 16:06 40.47404 29.04622 9010 ft 262 kts 80°
2026-04-22 16:07 40.47655 29.06984 8978 ft 259 kts 70°
2026-04-22 16:07 40.48537 29.08924 8955 ft 246 kts 36°
2026-04-22 16:07 40.50024 29.09956 8975 ft 244 kts
2026-04-22 16:07 40.51706 29.09936 8650 ft 240 kts 343°
2026-04-22 16:08 40.53294 29.09353 8327 ft 239 kts 342°
2026-04-22 16:08 40.54892 29.08779 8006 ft 238 kts 343°
2026-04-22 16:08 40.56495 29.08230 7689 ft 237 kts 344°
2026-04-22 16:08 40.58096 29.07695 7379 ft 235 kts 345°
2026-04-22 16:09 40.59654 29.07180 7089 ft 233 kts 345°
2026-04-22 16:09 40.61232 29.06658 6794 ft 232 kts 345°
2026-04-22 16:09 40.62791 29.06143 6414 ft 234 kts 346°
2026-04-22 16:09 40.64349 29.05630 6199 ft 227 kts 346°
2026-04-22 16:10 40.65839 29.05141 6038 ft 219 kts 347°
2026-04-22 16:10 40.67299 29.04662 5873 ft 211 kts 347°
2026-04-22 16:10 40.68247 29.04351 5762 ft 206 kts 347°
2026-04-22 16:10 40.70039 29.03763 5540 ft 196 kts 347°
2026-04-22 16:11 40.71367 29.03324 5233 ft 196 kts 347°
2026-04-22 16:11 40.72702 29.02883 4905 ft 197 kts 348°
2026-04-22 16:11 40.74026 29.02448 4604 ft 197 kts 348°
2026-04-22 16:11 40.75350 29.02014 4306 ft 196 kts 350°
2026-04-22 16:12 40.76691 29.01991 3966 ft 193 kts 20°
2026-04-22 16:12 40.77828 29.02882 3660 ft 191 kts 43°
2026-04-22 16:12 40.78693 29.04195 3378 ft 190 kts 55°
2026-04-22 16:12 40.79385 29.05688 3126 ft 189 kts 60°
2026-04-22 16:13 40.80009 29.07196 3041 ft 188 kts 62°
2026-04-22 16:13 40.80606 29.08734 3010 ft 188 kts 63°
2026-04-22 16:13 40.81178 29.10265 2984 ft 181 kts 63°
2026-04-22 16:13 40.81709 29.11715 3015 ft 173 kts 64°
2026-04-22 16:14 40.82229 29.13145 3096 ft 174 kts 64°
2026-04-22 16:14 40.82755 29.14595 2938 ft 173 kts 64°
2026-04-22 16:14 40.83270 29.16014 2703 ft 172 kts 64°
2026-04-22 16:14 40.83789 29.17438 2469 ft 171 kts 64°
2026-04-22 16:15 40.84299 29.18836 2240 ft 169 kts 64°
2026-04-22 16:15 40.84793 29.20187 1998 ft 157 kts 64°
2026-04-22 16:15 40.85244 29.21420 1802 ft 140 kts 64°
2026-04-22 16:15 40.85654 29.22540 1610 ft 134 kts 64°
2026-04-22 16:16 40.86064 29.23658 1439 ft 134 kts 64°
2026-04-22 16:16 40.86468 29.24760 1266 ft 133 kts 64°
2026-04-22 16:16 40.86872 29.25862 1089 ft 133 kts 64°
2026-04-22 16:16 40.87280 29.26966 896 ft 133 kts 64°
2026-04-22 16:17 40.87676 29.28053 722 ft 132 kts 64°
2026-04-22 16:17 40.88065 29.29119 546 ft 132 kts 63°
2026-04-22 16:17 40.88481 29.30249 362 ft 132 kts 64°
2026-04-22 16:17 40.88853 29.31254 322 ft 102 kts 67°
2026-04-22 16:18 40.89086 29.31890 321 ft 52 kts 66°
2026-04-22 16:18 40.89219 29.32237 321 ft 34 kts 55°
2026-04-22 16:18 40.89365 29.32415 321 ft 25 kts 34°
2026-04-22 16:18 40.89467 29.32492 321 ft 10 kts
2026-04-22 16:19 40.89494 29.32440 321 ft 10 kts 252°
2026-04-22 16:19 40.89499 29.32372 321 ft 9 kts 321°
2026-04-22 16:19 40.89557 29.32355 321 ft 10 kts 18°
2026-04-22 16:19 40.89637 29.32348 321 ft 10 kts 337°
2026-04-22 16:20 40.89690 29.32312 321 ft 10 kts 334°
2026-04-22 16:20 40.89747 29.32276 321 ft 11 kts 334°
2026-04-22 16:20 40.89807 29.32238 321 ft 12 kts 334°
2026-04-22 16:20 40.89871 29.32198 321 ft 12 kts 334°
2026-04-22 16:21 40.89937 29.32157 321 ft 13 kts 334°
2026-04-22 16:21 40.90006 29.32114 321 ft 13 kts 334°
2026-04-22 16:21 40.90072 29.32073 321 ft 8 kts 336°
2026-04-22 16:21 40.90113 29.32103 321 ft 8 kts 59°
2026-04-22 16:22 40.90169 29.32253 321 ft 10 kts 64°
2026-04-22 16:22 40.90203 29.32346 321 ft 10 kts 64°
2026-04-22 16:22 40.90236 29.32436 321 ft 9 kts 64°
2026-04-22 16:23 40.90310 29.32580 321 ft 8 kts
2026-04-22 16:23 40.90360 29.32560 321 ft 8 kts 334°
2026-04-22 16:23 40.90408 29.32530 321 ft 8 kts 335°
2026-04-22 16:24 40.90453 29.32503 321 ft 8 kts 334°
2026-04-22 16:24 40.90562 29.32433 321 ft 12 kts 329°
2026-04-22 16:24 40.90589 29.32368 321 ft 11 kts 266°
2026-04-22 16:25 40.90568 29.32289 321 ft 12 kts 245°
2026-04-22 16:25 40.90501 29.32106 321 ft 15 kts 244°
2026-04-22 16:25 40.90481 29.32023 321 ft 9 kts 285°
2026-04-22 16:26 40.90518 29.31980 321 ft 9 kts 334°
2026-04-22 16:26 40.90567 29.31949 321 ft 9 kts 335°
2026-04-22 16:26 40.90604 29.31910 321 ft 9 kts 294°
2026-04-22 16:26 40.90600 29.31849 321 ft 9 kts 245°
2026-04-22 16:27 40.90580 29.31793 321 ft 9 kts 245°
2026-04-22 16:27 40.90557 29.31730 321 ft 10 kts 243°
2026-04-22 16:27 40.90531 29.31661 321 ft 9 kts 244°
2026-04-22 16:27 40.90537 29.31621 321 ft 5 kts 326°
2026-04-22 16:28 40.90567 29.31601 321 ft 5 kts 333°
2026-04-22 16:28 40.90595 29.31583 321 ft 2 kts 333°
2026-04-22 16:28 40.90605 29.31576 321 ft 0 kts 333°